Location: Grandview
(34.8900°N, 117.1058°W)
Time: 07:50:49
(UTC-07:00)

Vanguard 3 - Visible Passes

Search period start: 16 July 2018 00:00
Search period end: 26 July 2018 00:00
Orbit: 508 x 3264 km, 33.3° (Epoch: 16 July)

Date Brightness Start Highest point End Pass type
(mag) Time Alt. Az. Time Alt. Az. Time Alt. Az.
16 Jul 7.8 20:56:52 10° W 21:07:03 78° S 21:12:32 11° E visible
16 Jul 8.0 23:12:33 10° W 23:17:06 38° WSW 23:17:06 38° WSW visible
17 Jul 7.4 21:56:40 10° W 22:05:19 77° S 22:07:24 40° ESE visible
18 Jul 9.7 00:11:49 10° W 00:11:58 11° W 00:11:58 11° W visible
18 Jul 8.1 20:40:01 10° W 20:51:15 81° S 20:57:20 10° E visible
18 Jul 7.7 22:56:12 10° W 23:02:13 48° WSW 23:02:13 48° WSW visible
19 Jul 7.6 21:40:01 10° W 21:49:35 75° S 21:52:28 32° ESE visible
19 Jul 9.5 23:55:47 10° W 23:57:01 14° W 23:57:01 14° W visible
20 Jul 8.3 20:23:03 10° W 20:35:22 82° S 20:41:59 10° E visible
20 Jul 7.7 22:39:45 10° W 22:47:15 50° SSW 22:47:15 50° SSW visible
21 Jul 7.9 21:23:14 10° W 21:33:46 72° SSW 21:37:28 26° ESE visible
21 Jul 9.3 23:39:39 10° W 23:42:02 17° WSW 23:42:02 17° WSW visible
22 Jul 7.8 22:23:11 10° W 22:31:42 47° SSW 22:32:15 46° SSW visible
23 Jul 8.2 21:06:21 10° W 21:17:52 69° SSW 21:22:28 22° ESE visible
23 Jul 9.3 23:23:27 10° W 23:27:02 19° WSW 23:27:02 19° WSW visible
24 Jul 8.1 22:06:30 10° W 22:15:46 44° SSW 22:17:15 39° S visible
25 Jul 8.5 20:49:21 10° W 21:01:52 66° SSW 21:07:27 18° ESE visible
25 Jul 9.3 23:07:11 10° W 23:12:01 20° SW 23:12:01 20° SW visible
